Regional Weather Roundup
Issued by NWS Jackson, KY

Home | Current Version | Previous Version | Text Only | Print | Product List | Glossary Off
Versions: 1 2 3 4 5 6 7 8 9 10 11 12 13 14 15 16 17 18 19 20 21 22 23 24 25 26 27 28 29 30 31 32 33 34 35 36 37 38 39 40 41 42 43 44 45 46 47 48 49 50

000
ASUS43 KJKL 211810
RWRJKL

EAST KENTUCKY HOURLY WEATHER ROUNDUP
NATIONAL WEATHER SERVICE JACKSON KY
200 PM EDT THU AUG 21 2014

NOTE: "FAIR" INDICATES FEW OR NO CLOUDS BELOW 12,000 FEET WITH
NO SIGNIFICANT WEATHER AND/OR OBSTRUCTIONS TO VISIBILITY.

* THESE REPORTS ARE NOT UNDER NWS QUALITY CONTROL AND MAY NOT
  REPORT WEATHER SUCH AS PRECIPITATION AND FOG.

KYZ079-080-083-085-087-088-110-112-115-119-120-211900
...EASTERN KENTUCKY...

CITY           SKY/WX    TMP DP  RH WIND       PRES   REMARKS
JACKSON        MOSUNNY   85  73  67 VRB3      30.14F HX  91
6HR MIN TEMP:  67; 6HR MAX TEMP:  86;

LONDON         PTSUNNY   86  71  60 W13       30.16F HX  91
6HR MIN TEMP:  69; 6HR MAX TEMP:  87;

SOMERSET*      CLOUDY    82  73  74 W7        30.15F
MONTICELLO*    MOSUNNY   87  75  67 SW8       30.16F HX  96
6HR MIN TEMP:  67; 6HR MAX TEMP:  87;

WILLIAMSBURG*    N/A    N/A N/A N/A MISG        N/A
MIDDLESBORO*   MOSUNNY   81  72  74 CALM      30.18S
6HR MIN TEMP:  64; 6HR MAX TEMP:  81; 6HR PCP:  0.01;

HARLAN APT*    MOCLDY    82  70  65 MISG      30.17F
BLACK MTN*       N/A     73  68  83 SW2         N/A
PIKEVILLE APT* MOSUNNY   81  72  74 S5        30.14F
BIG SANDY*     MOCLDY    82  73  72 S6        30.13F
6HR MIN TEMP:  68; 6HR MAX TEMP:  82;

MOREHEAD APT*  CLOUDY    81  72  74 W7G14     30.14S
$$

KYZ035-036-041-042-044-050-067-078-099-211900
...CENTRAL KENTUCKY...

CITY           SKY/WX    TMP DP  RH WIND       PRES   REMARKS
MT STERLING*   PTSUNNY   82  73  74 W8        30.12F
FLEMING/MASON* RAIN      73  72  94 SW6       30.13R
DANVILLE*      PTSUNNY   86  72  62 W9        30.13S HX  92
RICHMOND*      PTSUNNY   84  72  65 W8        30.12F
LEXINGTON      LGT RAIN  84  73  69 W7        30.11S HX  90
6HR MIN TEMP:  71; 6HR MAX TEMP:  84; 6HR PCP: TRACE;

FRANKFORT      CLOUDY    81  73  76 SW9       30.09S
6HR MIN TEMP:  70; 6HR MAX TEMP:  83; 6HR PCP:  0.02;

$$

KYZ091>093-OHZ055-061-077-WVZ005-015-034-035-042-211900
...SOUTHERN OHIO/WEST VIRGINIA...

CITY           SKY/WX    TMP DP  RH WIND       PRES   REMARKS
COVINGTON      CLOUDY    77  73  88 SE5       30.10F
COLUMBUS       LGT RAIN  73  70  88 SW5       30.09F
DAYTON         HVY RAIN  71  69  93 S7        30.09F FOG
WILMINGTON     LGT RAIN  69  67  93 CALM      30.10F FOG
HUNTINGTON     CLOUDY    82  73  74 S7        30.09F
CHARLESTON     TSTM      80  70  71 SW9       30.09F
PINEVILLE*     PTSUNNY   84  71  64 MISG      30.21S
BECKLEY        PTSUNNY   80  64  58 S6        30.19S
BLUEFIELD      PTSUNNY   82  63  52 W9        30.23S
$$

VAZ002-007-008-TNZ017-027-036-066-071-211900
...SOUTHWEST VIRGINIA/EAST TENNESSEE...

CITY           SKY/WX    TMP DP  RH WIND       PRES   REMARKS
WISE*          MOSUNNY   79  68  69 SW8       30.24F
JONESVILLE*      N/A     81  72  74 CALM      30.20F
ABINGDON*      CLOUDY    78  68  72 W6        30.23S
BRISTOL        MOSUNNY   81  69  67 VRB5      30.20F
KNOXVILLE      PTSUNNY   84  72  67 SW7       30.16F
OAK RIDGE      MOSUNNY   84  72  67 CALM      30.18F
CROSSVILLE     MOSUNNY   84  68  58 W9        30.23S
NASHVILLE      MOSUNNY   92  72  51 SW7       30.13F HX  99
$$

...KEY TO REMARKS...
VSB - VISIBILITY IN MILES
WCI - WIND CHILL INDEX
HX  - HEAT INDEX

$$



USA.gov is the U.S. government's official web portal to all federal, state and local government web resources and services.